Weather History for Princeton, MN

Change the Weather History Date:

Wednesday, March 12, 2014

  Actual Average Record
Temperature  
Mean Temperature 20 °F -  
Max Temperature 26 °F 32 °F 51 °F (2007)
Min Temperature 14 °F 15 °F -16 °F (2009)
Degree Days  
Heating Degree Days 45    
Moisture  
Dew Point 9 °F    
Average Humidity 60    
Maximum Humidity 73    
Minimum Humidity 40    
Precipitation  
Precipitation 0.00 in - - ()
Sea Level Pressure  
Sea Level Pressure 30.08 in    
Wind  
Wind Speed 7 mph (NW)    
Max Wind Speed 13 mph    
Max Gust Speed 16 mph    
Visibility 10 miles    
Events      
Averages and records for this station are not official NWS values.
T = Trace of Precipitation, MM = Missing Value Source: NWS Daily Summary

Daily Weather History Graph

Daily Weather History Graph

Search for Another Location

Airport:

Trip Planner

Search our weather history database for the weather conditions in past years. The results will help you decide how hot, cold, wet, or windy it might be!

Date:

Astronomy

Mar. 12, 2014 Rise Set
Actual Time 7:32 AM CDT 7:16 PM CDT
Civil Twilight 7:03 AM CDT 7:45 PM CDT
Nautical Twilight 6:28 AM CDT 8:20 PM CDT
Astronomical Twilight 5:53 AM CDT 8:55 PM CDT
Moon 3:39 PM CDT (3/12) 5:13 AM CDT (3/12)
Length of Visible Light 12h 42m
Length of Day
11h 43m
Waxing Gibbous, 85% of the Moon is Illuminated
Mar 12
Waxing Gibbous
Mar 16
Full
Mar 23
Last Quarter
Mar 30
New
Apr 7
First Quarter

Hourly Weather History & Observations

Time (CDT) Temp. Windchill Dew Point Humidity Pressure Visibility Wind Dir Wind Speed Gust Speed Precip Events Conditions
12:13 AM 26.6 °F 16.8 °F 17.6 °F 69% 30.04 in 10.0 mi WNW 10.4 mph - N/A   Clear
12:33 AM 26.6 °F 15.7 °F 15.8 °F 64% 30.04 in 10.0 mi NW 12.7 mph - N/A   Clear
12:53 AM 26.6 °F 17.5 °F 15.8 °F 64% 30.04 in 10.0 mi WNW 9.2 mph - N/A   Clear
1:13 AM 24.8 °F 15.3 °F 15.8 °F 69% 30.04 in 10.0 mi WNW 9.2 mph - N/A   Clear
1:33 AM 24.8 °F 15.3 °F 15.8 °F 69% 30.04 in 10.0 mi WNW 9.2 mph - N/A   Clear
1:53 AM 24.8 °F 15.3 °F 14.0 °F 64% 30.04 in 10.0 mi WNW 9.2 mph - N/A   Clear
2:13 AM 23.0 °F 11.1 °F 12.2 °F 63% 30.04 in 10.0 mi NW 12.7 mph 16.1 mph N/A   Clear
2:33 AM 23.0 °F 12.4 °F 12.2 °F 63% 30.05 in 10.0 mi NW 10.4 mph - N/A   Clear
2:53 AM 23.0 °F 12.4 °F 12.2 °F 63% 30.05 in 10.0 mi NW 10.4 mph - N/A   Clear
3:13 AM 21.2 °F 9.5 °F 10.4 °F 63% 30.05 in 10.0 mi NW 11.5 mph - N/A   Clear
3:33 AM 21.2 °F 10.9 °F 10.4 °F 63% 30.06 in 10.0 mi NW 9.2 mph 16.1 mph N/A   Clear
3:53 AM 19.4 °F 7.9 °F 10.4 °F 68% 30.05 in 10.0 mi NW 10.4 mph - N/A   Clear
4:13 AM 19.4 °F 10.4 °F 10.4 °F 68% 30.05 in 10.0 mi NW 6.9 mph - N/A   Clear
4:33 AM 19.4 °F 10.4 °F 10.4 °F 68% 30.05 in 10.0 mi NW 6.9 mph - N/A   Clear
4:54 AM 19.4 °F 9.5 °F 8.6 °F 63% 30.06 in 10.0 mi NW 8.1 mph - N/A   Scattered Clouds
5:13 AM 17.6 °F 7.3 °F 8.6 °F 68% 30.06 in 10.0 mi NW 8.1 mph - N/A   Scattered Clouds
5:33 AM 17.6 °F 9.3 °F 8.6 °F 68% 30.07 in 10.0 mi NW 5.8 mph - N/A   Scattered Clouds
5:54 AM 17.6 °F 7.3 °F 8.6 °F 68% 30.08 in 10.0 mi NW 8.1 mph - N/A   Clear
6:13 AM 17.6 °F 9.3 °F 6.8 °F 63% 30.08 in 10.0 mi NNW 5.8 mph - N/A   Clear
6:33 AM 15.8 °F 5.1 °F 6.8 °F 68% 30.09 in 10.0 mi NNW 8.1 mph - N/A   Clear
6:54 AM 15.8 °F 5.1 °F 6.8 °F 68% 30.09 in 10.0 mi NNW 8.1 mph - N/A   Clear
7:13 AM 15.8 °F 6.1 °F 5.0 °F 62% 30.09 in 10.0 mi NNW 6.9 mph - N/A   Clear
7:33 AM 15.8 °F 5.1 °F 5.0 °F 62% 30.10 in 10.0 mi NNW 8.1 mph - N/A   Clear
7:54 AM 14.0 °F 2.0 °F 5.0 °F 67% 30.11 in 10.0 mi NNW 9.2 mph - N/A   Clear
8:13 AM 15.8 °F 5.1 °F 5.0 °F 62% 30.11 in 10.0 mi NNW 8.1 mph - N/A   Clear
8:33 AM 15.8 °F 5.1 °F 5.0 °F 62% 30.11 in 10.0 mi NNW 8.1 mph - N/A   Clear
8:54 AM 15.8 °F 5.1 °F 5.0 °F 62% 30.13 in 10.0 mi NNW 8.1 mph - N/A   Clear
9:13 AM 15.8 °F 4.2 °F 5.0 °F 62% 30.13 in 10.0 mi NW 9.2 mph - N/A   Clear
9:33 AM 15.8 °F 3.4 °F 6.8 °F 68% 30.13 in 10.0 mi NW 10.4 mph - N/A   Clear
9:53 AM 17.6 °F 6.4 °F 6.8 °F 63% 30.13 in 10.0 mi NW 9.2 mph - N/A   Clear
10:13 AM 17.6 °F 8.2 °F 6.8 °F 63% 30.13 in 10.0 mi NNW 6.9 mph - N/A   Clear
10:33 AM 19.4 °F 11.5 °F 8.6 °F 63% 30.13 in 10.0 mi North 5.8 mph - N/A   Clear
10:53 AM 19.4 °F 11.5 °F 8.6 °F 63% 30.13 in 10.0 mi NNW 5.8 mph - N/A   Clear
11:13 AM 19.4 °F 14.3 °F 8.6 °F 63% 30.13 in 10.0 mi North 3.5 mph - N/A   Clear
11:33 AM 21.2 °F 16.4 °F 10.4 °F 63% 30.13 in 10.0 mi North 3.5 mph - N/A   Clear
11:53 AM 21.2 °F 14.9 °F 8.6 °F 58% 30.12 in 10.0 mi North 4.6 mph - N/A   Clear
12:13 PM 21.2 °F 16.4 °F 8.6 °F 58% 30.12 in 10.0 mi North 3.5 mph - N/A   Clear
12:33 PM 23.0 °F - 8.6 °F 54% 30.12 in 10.0 mi Calm Calm - N/A   Clear
12:53 PM 23.0 °F 18.4 °F 8.6 °F 54% 30.12 in 10.0 mi WNW 3.5 mph - N/A   Clear
1:13 PM 23.0 °F - 8.6 °F 54% 30.12 in 10.0 mi Calm Calm - N/A   Clear
1:33 PM 23.0 °F - 8.6 °F 54% 30.12 in 10.0 mi Calm Calm - N/A   Clear
1:53 PM 24.8 °F 19.1 °F 6.8 °F 46% 30.12 in 10.0 mi West 4.6 mph - N/A   Clear
2:13 PM 24.8 °F 20.5 °F 6.8 °F 46% 30.11 in 10.0 mi NW 3.5 mph - N/A   Clear
2:33 PM 24.8 °F - 6.8 °F 46% 30.10 in 10.0 mi Calm Calm - N/A   Clear
2:53 PM 24.8 °F 17.9 °F 6.8 °F 46% 30.10 in 10.0 mi WNW 5.8 mph - N/A   Clear
3:13 PM 24.8 °F 19.1 °F 8.6 °F 50% 30.09 in 10.0 mi WSW 4.6 mph - N/A   Clear
3:33 PM 26.6 °F 19.1 °F 6.8 °F 43% 30.09 in 10.0 mi West 6.9 mph - N/A   Clear
3:53 PM 26.6 °F 20.0 °F 6.8 °F 43% 30.08 in 10.0 mi West 5.8 mph - N/A   Clear
4:13 PM 26.6 °F 19.1 °F 5.0 °F 40% 30.08 in 10.0 mi West 6.9 mph - N/A   Clear
4:33 PM 26.6 °F 19.1 °F 5.0 °F 40% 30.08 in 10.0 mi West 6.9 mph - N/A   Clear
4:53 PM 26.6 °F 18.2 °F 6.8 °F 43% 30.07 in 10.0 mi NW 8.1 mph - N/A   Clear
5:13 PM 26.6 °F 18.2 °F 8.6 °F 47% 30.07 in 10.0 mi WNW 8.1 mph - N/A   Clear
5:33 PM 26.6 °F 18.2 °F 6.8 °F 43% 30.07 in 10.0 mi West 8.1 mph - N/A   Clear
5:53 PM 24.8 °F 16.9 °F 8.6 °F 50% 30.06 in 10.0 mi WNW 6.9 mph - N/A   Clear
6:13 PM 24.8 °F 17.9 °F 8.6 °F 50% 30.06 in 10.0 mi West 5.8 mph - N/A   Clear
6:33 PM 24.8 °F 20.5 °F 8.6 °F 50% 30.06 in 10.0 mi West 3.5 mph - N/A   Clear
6:53 PM 24.8 °F 20.5 °F 8.6 °F 50% 30.07 in 10.0 mi West 3.5 mph - N/A   Clear
7:13 PM 23.0 °F - 8.6 °F 54% 30.07 in 10.0 mi Calm Calm - N/A   Clear
7:33 PM 21.2 °F - 8.6 °F 58% 30.07 in 10.0 mi Calm Calm - N/A   Clear
7:53 PM 21.2 °F - 10.4 °F 63% 30.07 in 10.0 mi Calm Calm - N/A   Clear
8:13 PM 21.2 °F - 8.6 °F 58% 30.07 in 10.0 mi Calm Calm - N/A   Clear
8:33 PM 19.4 °F 14.3 °F 8.6 °F 63% 30.06 in 10.0 mi SSE 3.5 mph - N/A   Clear
8:53 PM 19.4 °F - 8.6 °F 63% 30.06 in 10.0 mi Calm Calm - N/A   Clear
9:13 PM 19.4 °F - 8.6 °F 63% 30.05 in 10.0 mi Calm Calm - N/A   Clear
9:33 PM 19.4 °F - 8.6 °F 63% 30.05 in 10.0 mi Calm Calm - N/A   Clear
9:53 PM 17.6 °F 12.3 °F 8.6 °F 68% 30.05 in 10.0 mi SE 3.5 mph - N/A   Clear
10:13 PM 15.8 °F 10.2 °F 8.6 °F 73% 30.03 in 10.0 mi ESE 3.5 mph - N/A   Clear
10:33 PM 17.6 °F 10.7 °F 8.6 °F 68% 30.02 in 10.0 mi SE 4.6 mph - N/A   Clear
10:53 PM 19.4 °F 14.3 °F 8.6 °F 63% 30.02 in 10.0 mi SE 3.5 mph - N/A   Clear
11:13 PM 19.4 °F 14.3 °F 8.6 °F 63% 30.01 in 10.0 mi SE 3.5 mph - N/A   Scattered Clouds
11:33 PM 17.6 °F 10.7 °F 8.6 °F 68% 29.99 in 10.0 mi SE 4.6 mph - N/A   Mostly Cloudy
11:53 PM 17.6 °F 10.7 °F 8.6 °F 68% 29.98 in 10.0 mi SSE 4.6 mph - N/A   Scattered Clouds